{"data":{"norad_id":49202,"epoch":"2026-05-25T00:35:16.116576Z","epoch_age_seconds":69353,"freshness":"FRESH","line1":"1 49202U 21083S   26145.02449209  .00000289  00000+0  75655-3 0  9998","line2":"2 49202  87.8939 324.8430 0002128 100.2447 259.8923 13.13468826227874","mean_motion":13.13468826,"eccentricity":0.0002128,"inclination_deg":87.8939,"raan_deg":324.843,"arg_perigee_deg":100.2447,"mean_anomaly_deg":259.8923,"bstar":0.00075655,"rev_number":22787,"period_min":109.6333595054,"perigee_km":1208.1552147679,"apogee_km":1211.3846279536,"semimajor_km":7587.9069213607,"source":"CELESTRAK","updated_at":"2026-05-25T13:38:22.492526Z"}}